TimeEDT,TemperatureF,Dew PointF,Humidity,Sea Level PressureIn,VisibilityMPH,Wind Direction,Wind SpeedMPH,Gust SpeedMPH,PrecipitationIn,Events,Conditions,WindDirDegrees,DateUTC
12:56 AM,77.0,72.0,84,30.28,10.0,Calm,Calm,-,N/A,,Clear,0,2013-07-15 04:56:00
1:56 AM,78.1,71.1,79,30.27,10.0,SW,8.1,-,N/A,,Clear,230,2013-07-15 05:56:00
2:56 AM,75.9,71.1,85,30.27,10.0,Calm,Calm,-,N/A,,Clear,0,2013-07-15 06:56:00
3:56 AM,75.0,70.0,84,30.28,10.0,Calm,Calm,-,N/A,,Clear,0,2013-07-15 07:56:00
4:56 AM,73.9,69.1,85,30.28,10.0,Calm,Calm,-,N/A,,Clear,0,2013-07-15 08:56:00
5:56 AM,73.0,69.1,87,30.28,10.0,Calm,Calm,-,N/A,,Partly Cloudy,0,2013-07-15 09:56:00
6:56 AM,73.9,70.0,87,30.29,10.0,Calm,Calm,-,N/A,,Clear,0,2013-07-15 10:56:00
7:56 AM,77.0,70.0,79,30.29,10.0,WNW,6.9,-,N/A,,Clear,300,2013-07-15 11:56:00
8:56 AM,79.0,71.1,77,30.29,10.0,WNW,5.8,-,N/A,,Clear,300,2013-07-15 12:56:00
9:56 AM,82.9,72.0,69,30.29,10.0,WNW,6.9,-,N/A,,Clear,290,2013-07-15 13:56:00
10:56 AM,84.9,72.0,65,30.27,10.0,WNW,8.1,-,N/A,,Clear,290,2013-07-15 14:56:00
11:56 AM,87.1,73.0,63,30.27,10.0,West,5.8,-,N/A,,Partly Cloudy,280,2013-07-15 15:56:00
12:56 PM,88.0,72.0,59,30.25,10.0,WNW,12.7,-,N/A,,Scattered Clouds,300,2013-07-15 16:56:00
1:56 PM,91.0,71.1,52,30.24,10.0,West,5.8,-,N/A,,Scattered Clouds,270,2013-07-15 17:56:00
2:56 PM,91.9,68.0,45,30.22,10.0,Variable,3.5,-,N/A,,Scattered Clouds,0,2013-07-15 18:56:00
3:56 PM,91.9,71.1,50,30.21,10.0,WNW,9.2,-,N/A,,Scattered Clouds,290,2013-07-15 19:56:00
4:56 PM,91.0,73.0,55,30.19,10.0,WNW,6.9,-,N/A,,Scattered Clouds,300,2013-07-15 20:56:00
5:56 PM,91.0,71.1,52,30.18,10.0,WNW,8.1,-,N/A,,Partly Cloudy,290,2013-07-15 21:56:00
6:56 PM,90.0,72.0,55,30.18,10.0,NW,6.9,-,N/A,,Scattered Clouds,310,2013-07-15 22:56:00
7:56 PM,87.1,73.9,65,30.18,10.0,West,3.5,-,N/A,,Scattered Clouds,280,2013-07-15 23:56:00
8:56 PM,82.9,73.9,74,30.18,10.0,Calm,Calm,-,N/A,,Scattered Clouds,0,2013-07-16 00:56:00
9:56 PM,80.1,75.0,85,30.19,10.0,NW,4.6,-,N/A,,Scattered Clouds,320,2013-07-16 01:56:00
10:56 PM,81.0,73.9,79,30.19,10.0,WNW,3.5,-,N/A,,Scattered Clouds,300,2013-07-16 02:56:00
11:56 PM,80.1,73.9,81,30.20,10.0,NW,6.9,-,N/A,,Scattered Clouds,310,2013-07-16 03:56:00